Weather History for Old Crow, YT

Change the Weather History Date:

Sunday, November 24, 2013

  Actual Average Record
Temperature  
Mean Temperature -2 °F -  
Max Temperature 12 °F - - ()
Min Temperature -17 °F - - ()
Degree Days  
Heating Degree Days 68    
Moisture  
Dew Point -14 °F    
Average Humidity 78    
Maximum Humidity 89    
Minimum Humidity 62    
Precipitation  
Precipitation 0.00 in - - ()
Sea Level Pressure  
Sea Level Pressure 30.14 in    
Wind  
Wind Speed 2 mph ()    
Max Wind Speed 6 mph    
Max Gust Speed -    
T = Trace of Precipitation, MM = Missing Value Source: Averaged Metar Reports

Daily Weather History Graph

Daily Weather History Graph

Search for Another Location

Airport:

Trip Planner

Search our weather history database for the weather conditions in past years. The results will help you decide how hot, cold, wet, or windy it might be!

Date:

Astronomy

Nov. 24, 2013 Rise Set
Actual Time 11:10 AM PST 3:01 PM PST
Civil Twilight 9:39 AM PST 4:31 PM PST
Nautical Twilight 8:23 AM PST 5:47 PM PST
Astronomical Twilight 7:17 AM PST 6:54 PM PST
Moon 11:38 PM PST (11/24) 2:08 PM PST (11/24)
Length of Visible Light 6h 51m
Length of Day
3h 51m
Waning Gibbous, 59% of the Moon is Illuminated
Nov 24
Waning Gibbous
Nov 25
Last Quarter
Dec 2
New
Dec 9
First Quarter
Dec 17
Full

Hourly Weather History & Observations

Time (PST) Temp. Windchill Dew Point Humidity Pressure Visibility Wind Dir Wind Speed Gust Speed Precip Events Conditions
12:00 AM 9.1 °F - 4.8 °F 83% 29.97 in - West 1.2 mph - N/A   Unknown
1:00 AM 5.7 °F - 3.0 °F 89% 29.99 in - Calm Calm - N/A   Unknown
2:00 AM 6.1 °F -4.3 °F 2.1 °F 84% 30.01 in - SW 5.8 mph - N/A   Unknown
3:00 AM -1.3 °F - -4.5 °F 86% 30.04 in - NE 1.2 mph - N/A   Unknown
4:00 AM -5 °F - -9 °F 73% 30.05 in - NW 1.2 mph - -  
4:00 AM -5.1 °F - -9.2 °F 82% 30.05 in - NW 1.2 mph - N/A   Unknown
5:00 AM 0.3 °F -9.5 °F -3.1 °F 85% 30.04 in - West 4.6 mph - N/A   Unknown
6:00 AM -1.3 °F -9.3 °F -5.4 °F 83% 30.05 in - West 3.5 mph - N/A   Unknown
7:00 AM -3.3 °F -15.4 °F -7.6 °F 82% 30.08 in - ENE 5.8 mph - N/A   Unknown
8:00 AM -9.2 °F - -14.4 °F 78% 30.10 in - WNW 1.2 mph - N/A   Unknown
9:00 AM -11.6 °F - -16.8 °F 78% - - NE 1.2 mph - N/A   Unknown
10:00 AM -12 °F - -17 °F 65% 30.13 in - East 2.3 mph - -  
10:00 AM -11.9 °F - -17.1 °F 78% 30.13 in - Calm Calm - N/A   Unknown
11:00 AM -12.6 °F - -17.9 °F 78% 30.15 in - East 1.2 mph - N/A   Unknown
12:00 PM -12.5 °F - -17.7 °F 78% 30.16 in - NNE 2.3 mph - N/A   Unknown
1:00 PM -11.2 °F - -16.2 °F 78% 30.18 in - ESE 2.3 mph - N/A   Unknown
2:00 PM -11.4 °F - -16.2 °F 79% 30.20 in - NE 1.2 mph - N/A   Unknown
3:00 PM -13.9 °F - -19.3 °F 77% 30.21 in - ENE 1.2 mph - N/A   Unknown
4:00 PM -16 °F - -21 °F 65% 30.21 in - East 2.3 mph - -  
4:00 PM -15.7 °F - -21.3 °F 76% 30.21 in - East 2.3 mph - N/A   Unknown
5:00 PM -16.4 °F - -22.2 °F 75% 30.21 in - ENE 2.3 mph - N/A   Unknown
6:00 PM -16.2 °F - -21.6 °F 77% 30.21 in - NNE 1.2 mph - N/A   Unknown
7:00 PM -16.2 °F - -21.6 °F 77% 30.21 in - East 1.2 mph - N/A   Unknown
8:00 PM -17.1 °F - -22.9 °F 75% 30.22 in - Calm Calm - N/A   Unknown
9:00 PM -17.1 °F - -22.9 °F 75% 30.23 in - Calm Calm - N/A   Unknown
10:00 PM -15 °F - -21 °F 62% 30.23 in - WSW 2.3 mph - -  
10:00 PM -15.2 °F - -20.7 °F 76% 30.23 in - SW 2.3 mph - N/A   Unknown
11:00 PM -11.9 °F - -17.0 °F 78% 30.22 in - West 1.2 mph - N/A   Unknown